GW3838 Weather Reports


Display with metric or nautical units.
time (UTC)temp
F
wind
direction
speed
MPH
gust
MPH
rain 1hr
in
rain 24hr
in
rain mn
in
humidity
%
barometer
mb
20260831150133 84 130 0.0 1.0 0.00 0.00 0.00 86 1026.3
20260831145627 83 91 1.0 2.0 0.00 0.00 0.00 87 1026.5
20260831145124 82 99 1.0 2.0 0.00 0.00 0.00 89 1026.3
20260831144619 83 45 3.0 6.0 0.00 0.00 0.00 88 1026.4
20260831144114 83 26 2.0 5.0 0.00 0.00 0.00 89 1026.3
20260831143609 82 127 0.0 3.0 0.00 0.00 0.00 90 1026.3
20260831143104 81 119 1.0 2.0 0.00 0.00 0.00 92 1026.4
20260831142601 81 106 1.0 2.0 0.00 0.00 0.00 93 1026.4
20260831142056 80 98 2.0 5.0 0.00 0.00 0.00 95 1026.4
20260831141554 80 37 3.0 5.0 0.00 0.00 0.00 96 1026.4
20260831141050 79 93 2.0 2.0 0.00 0.00 0.00 98 1026.3
20260831140549 78 130 1.0 5.0 0.00 0.00 0.00 99 1026.6
20260831140049 78 109 0.0 3.0 0.00 0.00 0.00 99 1026.5
20260831135547 78 122 0.0 2.0 0.00 0.00 0.00 99 1026.5
20260831135043 77 91 2.0 5.0 0.00 0.00 0.00 99 1026.2
20260831134538 78 120 1.0 3.0 0.00 0.00 0.00 99 1026.3
20260831134033 78 124 0.0 2.0 0.00 0.00 0.00 99 1026.3
20260831133527 77 108 1.0 1.0 0.00 0.00 0.00 99 1026.3
20260831133022 77 125 0.0 5.0 0.00 0.00 0.00 99 1026.5
20260831132518 77 110 1.0 2.0 0.00 0.00 0.00 99 1026.2
20260831132017 76 84 1.0 2.0 0.00 0.00 0.00 99 1026.6
20260831131517 76 125 0.0 1.0 0.00 0.00 0.00 99 1026.7
20260831131013 75 107 0.0 1.0 0.00 0.00 0.00 99 1026.5
20260831130508 75 130 0.0 2.0 0.00 0.00 0.00 99 1026.5
20260831130004 75 112 1.0 5.0 0.00 0.00 0.00 99 1026.7
20260831125457 75 130 0.0 0.0 0.00 0.00 0.00 99 1026.5
20260831124953 75 96 2.0 2.0 0.00 0.00 0.00 99 1026.7
20260831124449 75 105 1.0 2.0 0.00 0.00 0.00 99 1026.5
20260831123944 75 124 0.0 0.0 0.00 0.00 0.00 99 1026.4
20260831123443 74 130 0.0 0.0 0.00 0.00 0.00 99 1026.4
20260831122938 74 102 0.0 0.0 0.00 0.00 0.00 99 1026.2
20260831122433 74 110 0.0 0.0 0.00 0.00 0.00 99 1026.2
20260831121929 74 116 0.0 1.0 0.00 0.00 0.00 99 1026.0
20260831121424 74 111 0.0 1.0 0.00 0.00 0.00 99 1026.0
20260831120919 74 110 0.0 0.0 0.00 0.00 0.00 99 1025.9
20260831120413 74 110 0.0 0.0 0.00 0.00 0.00 99 1025.9
20260831115908 74 109 1.0 1.0 0.00 0.00 0.00 99 1025.9
20260831115405 73 117 0.0 1.0 0.00 0.00 0.00 99 1025.8
20260831114904 73 66 2.0 2.0 0.00 0.00 0.00 99 1025.7
20260831114403 73 83 0.0 0.0 0.00 0.00 0.00 99 1025.7
20260831113858 73 82 0.0 0.0 0.00 0.00 0.00 99 1025.7
20260831113353 73 82 0.0 0.0 0.00 0.00 0.00 99 1025.6
20260831112848 73 82 0.0 0.0 0.00 0.00 0.00 99 1025.6
20260831112342 72 95 0.0 0.0 0.00 0.00 0.00 99 1025.7
20260831111837 72 104 0.0 0.0 0.00 0.00 0.00 99 1025.6
20260831111334 72 154 0.0 0.0 0.00 0.00 0.00 99 1025.5
20260831110829 72 98 0.0 0.0 0.00 0.00 0.00 99 1025.3
20260831110324 72 98 0.0 0.0 0.00 0.00 0.00 99 1025.4
20260831105822 73 98 0.0 0.0 0.00 0.00 0.00 99 1025.4
20260831105318 73 98 0.0 0.0 0.00 0.00 0.00 99 1025.4
20260831104818 73 98 0.0 0.0 0.00 0.00 0.00 99 1025.4
20260831104315 73 98 0.0 0.0 0.00 0.00 0.00 99 1025.4
20260831103814 73 98 0.0 0.0 0.00 0.00 0.00 99 1025.2
20260831103310 73 98 0.0 0.0 0.00 0.00 0.00 99 1025.1
20260831102805 73 98 0.0 0.0 0.00 0.00 0.00 99 1025.3
20260831102300 73 98 0.0 0.0 0.00 0.00 0.00 99 1025.0
20260831101755 72 98 0.0 0.0 0.00 0.00 0.00 99 1025.2
20260831101251 73 100 0.0 1.0 0.00 0.00 0.00 99 1025.1
20260831100747 72 100 0.0 0.0 0.00 0.00 0.00 99 1025.1
20260831100243 72 101 0.0 0.0 0.00 0.00 0.00 99 1025.2
20260831095742 72 100 0.0 0.0 0.00 0.00 0.00 99 1025.1
20260831095236 72 100 0.0 0.0 0.00 0.00 0.00 99 1025.1
20260831094731 73 100 0.0 0.0 0.00 0.00 0.00 99 1025.1
20260831094227 72 100 0.0 0.0 0.00 0.00 0.00 99 1025.1
20260831093723 72 100 0.0 0.0 0.00 0.00 0.00 99 1025.3
20260831093218 72 100 0.0 0.0 0.00 0.00 0.00 99 1025.1
20260831092715 73 100 0.0 0.0 0.00 0.00 0.00 99 1025.0
20260831092210 73 100 0.0 0.0 0.00 0.00 0.00 99 1024.9
20260831091709 73 100 0.0 0.0 0.00 0.00 0.00 99 1025.0
20260831091205 72 100 0.0 0.0 0.00 0.00 0.00 99 1024.9
20260831090700 72 100 0.0 0.0 0.00 0.00 0.00 99 1024.9
20260831090156 73 100 0.0 0.0 0.00 0.00 0.00 99 1025.1
20260831085651 73 100 0.0 0.0 0.00 0.00 0.00 99 1024.9
20260831085147 73 100 0.0 0.0 0.00 0.00 0.00 99 1025.1
20260831084642 73 100 0.0 0.0 0.00 0.00 0.00 99 1025.2
20260831084138 73 100 0.0 0.0 0.00 0.00 0.00 99 1025.1
20260831083634 73 100 0.0 0.0 0.00 0.00 0.00 99 1025.1
20260831083129 73 100 0.0 0.0 0.00 0.00 0.00 99 1024.8
20260831082627 73 100 0.0 0.0 0.00 0.00 0.00 99 1025.0
20260831082123 73 100 0.0 0.0 0.00 0.00 0.00 99 1024.9
20260831081618 73 100 0.0 0.0 0.00 0.00 0.00 99 1024.8
20260831081114 73 99 0.0 0.0 0.00 0.00 0.00 99 1025.1
20260831080609 72 101 0.0 0.0 0.00 0.00 0.00 99 1025.1
20260831080104 72 101 0.0 0.0 0.00 0.00 0.00 99 1025.2
20260831075600 73 101 0.0 0.0 0.00 0.00 0.00 99 1025.2
20260831075055 73 101 0.0 0.0 0.00 0.00 0.00 99 1025.1
20260831074554 73 101 0.0 0.0 0.00 0.00 0.00 99 1025.2
20260831074049 73 101 0.0 0.0 0.00 0.00 0.00 99 1025.1
20260831073544 73 101 0.0 0.0 0.00 0.00 0.00 99 1025.1
20260831073043 73 101 0.0 0.0 0.00 0.00 0.00 99 1025.1
20260831072539 73 101 0.0 0.0 0.00 0.00 0.00 99 1024.9
20260831072035 73 100 0.0 0.0 0.00 0.00 0.00 99 1025.0
20260831071534 73 101 0.0 0.0 0.00 0.00 0.00 99 1024.9
20260831071029 73 103 0.0 0.0 0.00 0.00 0.00 99 1025.1
20260831070528 73 103 0.0 0.0 0.00 0.00 0.00 99 1024.9
20260831070023 73 103 0.0 0.0 0.00 0.00 0.00 99 1024.9
20260831065521 73 103 0.0 0.0 0.00 0.00 0.00 99 1024.9
20260831065015 73 103 0.0 0.0 0.00 0.00 0.00 99 1024.8
20260831064511 73 103 0.0 0.0 0.00 0.00 0.00 99 1024.9
20260831064006 73 102 0.0 0.0 0.00 0.00 0.00 99 1025.0
20260831063502 73 104 0.0 0.0 0.00 0.00 0.00 99 1025.1
20260831063001 73 104 0.0 0.0 0.00 0.00 0.00 99 1025.1
20260831062457 73 104 0.0 0.0 0.00 0.00 0.00 99 1025.1
20260831061955 73 104 0.0 0.0 0.00 0.00 0.00 99 1025.0
20260831061454 73 104 0.0 0.0 0.00 0.00 0.00 99 1025.1
20260831060951 73 104 0.0 0.0 0.00 0.00 0.00 99 1025.0
20260831060450 74 103 0.0 0.0 0.00 0.00 0.00 99 1025.0
20260831055945 74 103 0.0 0.0 0.00 0.00 0.00 99 1025.3
20260831055440 74 103 0.0 0.0 0.00 0.00 0.00 99 1025.1
20260831054935 74 103 0.0 0.0 0.00 0.00 0.00 99 1025.1
20260831054430 74 103 0.0 0.0 0.00 0.00 0.00 99 1025.2
20260831053929 74 103 0.0 0.0 0.00 0.00 0.00 99 1025.5
20260831053427 74 103 0.0 0.0 0.00 0.00 0.00 99 1025.4
20260831052922 74 103 0.0 0.0 0.00 0.00 0.00 99 1025.3
20260831052422 74 103 0.0 0.0 0.00 0.00 0.00 99 1025.2
20260831051920 74 102 0.0 0.0 0.00 0.00 0.00 99 1025.5
20260831051419 74 105 0.0 0.0 0.00 0.00 0.00 99 1025.5
20260831050914 74 105 1.0 1.0 0.00 0.00 0.00 99 1025.4
20260831050408 74 105 0.0 0.0 0.00 0.00 0.00 99 1025.6
20260831045907 74 105 0.0 1.0 0.00 0.00 0.00 99 1025.5
20260831045406 74 105 1.0 1.0 0.00 0.00 0.00 99 1025.4
20260831044902 74 105 0.0 1.0 0.00 0.00 0.00 99 1025.6
20260831044401 75 105 1.0 1.0 0.00 0.00 0.00 99 1025.3
20260831043858 75 105 1.0 1.0 0.00 0.00 0.00 99 1025.3
20260831043357 75 105 0.0 0.0 0.00 0.00 0.00 99 1025.6
20260831042853 74 105 0.0 0.0 0.00 0.00 0.00 99 1025.5
20260831042352 74 105 0.0 0.0 0.00 0.00 0.00 99 1025.4
20260831041847 75 104 0.0 0.0 0.00 0.00 0.00 99 1025.5
20260831041346 74 105 0.0 0.0 0.00 0.00 0.00 99 1025.6
20260831040841 74 105 0.0 0.0 0.00 0.00 0.00 99 1025.5
20260831040336 75 105 0.0 0.0 0.00 0.00 0.00 99 1025.4
20260831035834 75 105 0.0 0.0 0.00 0.00 0.00 99 1025.5
20260831035333 75 103 0.0 0.0 0.00 0.00 0.00 99 1025.6
20260831034828 75 104 0.0 0.0 0.00 0.00 0.00 99 1025.4
20260831034324 75 104 0.0 0.0 0.00 0.00 0.00 99 1025.5
20260831033819 75 104 0.0 0.0 0.00 0.00 0.00 99 1025.3
20260831033318 75 104 0.0 0.0 0.00 0.00 0.00 99 1025.6
20260831032814 75 104 0.0 0.0 0.00 0.00 0.00 99 1025.6
20260831032308 75 104 0.0 0.0 0.00 0.00 0.00 99 1025.5
20260831031804 75 104 0.0 0.0 0.00 0.00 0.00 99 1025.8
20260831031303 75 104 0.0 0.0 0.00 0.00 0.00 99 1025.8
20260831030758 75 104 0.0 0.0 0.00 0.00 0.00 99 1025.7
20260831030256 75 104 0.0 0.0 0.00 0.00 0.00 99 1025.7
20260831025755 75 104 0.0 0.0 0.00 0.00 0.00 99 1025.8
20260831025250 75 104 0.0 0.0 0.00 0.00 0.00 99 1025.9
20260831024746 75 104 0.0 0.0 0.00 0.00 0.00 99 1025.9
20260831024244 75 104 0.0 0.0 0.00 0.00 0.00 99 1025.8
20260831023743 75 104 0.0 0.0 0.00 0.00 0.00 98 1025.8
20260831023237 75 104 0.0 0.0 0.00 0.00 0.00 98 1026.0
20260831022732 75 104 0.0 0.0 0.00 0.00 0.00 98 1025.7
20260831022232 75 104 0.0 0.0 0.00 0.00 0.00 98 1025.9
20260831021727 76 104 0.0 0.0 0.00 0.00 0.00 98 1025.9
20260831021226 76 104 0.0 0.0 0.00 0.00 0.00 98 1025.8
20260831020723 76 104 0.0 0.0 0.00 0.00 0.00 98 1025.9
20260831020222 76 104 0.0 0.0 0.00 0.00 0.00 98 1025.8
20260831015718 76 104 0.0 0.0 0.00 0.00 0.00 98 1025.6
20260831015213 76 104 0.0 1.0 0.00 0.00 0.00 98 1025.9
20260831014708 76 104 0.0 0.0 0.00 0.00 0.00 97 1025.7
20260831014203 76 104 1.0 1.0 0.00 0.00 0.00 97 1025.7
20260831013659 76 104 1.0 1.0 0.00 0.00 0.00 97 1025.7
20260831013158 76 104 1.0 1.0 0.00 0.00 0.00 97 1025.9
20260831012653 77 102 0.0 1.0 0.00 0.00 0.00 97 1025.7
20260831012149 77 102 1.0 1.0 0.00 0.00 0.00 97 1025.6
20260831011647 77 102 0.0 1.0 0.00 0.00 0.00 97 1025.4
20260831011144 77 102 0.0 1.0 0.00 0.00 0.00 97 1025.4
20260831010639 77 102 1.0 1.0 0.00 0.00 0.00 97 1025.5
20260831010134 77 102 1.0 1.0 0.00 0.00 0.00 96 1025.4
20260831005628 77 102 0.0 1.0 0.00 0.00 0.00 96 1025.3
20260831005118 77 102 1.0 1.0 0.00 0.00 0.00 96 1025.0
20260831004614 77 108 1.0 1.0 0.00 0.00 0.00 96 1025.2
20260831004109 77 108 0.0 1.0 0.00 0.00 0.00 95 1024.9
20260831003605 78 108 0.0 0.0 0.00 0.00 0.00 95 1025.1
20260831003101 78 107 1.0 1.0 0.00 0.00 0.00 95 1025.1
20260831002559 78 114 1.0 1.0 0.00 0.00 0.00 94 1025.2
20260831002055 78 114 0.0 1.0 0.00 0.00 0.00 94 1025.1
20260831001550 78 115 1.0 1.0 0.00 0.00 0.00 93 1025.0
20260831001047 78 115 0.0 0.0 0.00 0.00 0.00 93 1025.0
20260831000543 78 115 0.0 1.0 0.00 0.00 0.00 93 1024.8
20260831000042 79 115 0.0 1.0 0.00 0.00 0.00 93 1025.1
20260830235541 79 115 0.0 1.0 0.00 0.00 0.00 92 1025.1
20260830235036 80 115 1.0 1.0 0.00 0.00 0.00 91 1024.8
20260830234531 80 115 0.0 1.0 0.00 0.00 0.00 90 1025.0
20260830234026 80 115 1.0 1.0 0.00 0.00 0.00 89 1024.7
20260830233521 80 115 0.0 1.0 0.00 0.00 0.00 89 1024.7
20260830233018 80 115 1.0 2.0 0.00 0.00 0.00 89 1024.8
20260830232514 80 101 3.0 3.0 0.00 0.00 0.00 89 1024.8
20260830232010 80 142 1.0 2.0 0.00 0.00 0.00 89 1024.8
20260830231505 81 115 1.0 1.0 0.00 0.00 0.00 88 1024.8
20260830231004 81 125 0.0 2.0 0.00 0.00 0.00 88 1024.8
20260830230500 81 98 3.0 5.0 0.00 0.00 0.00 87 1024.7
20260830225958 82 108 2.0 5.0 0.00 0.00 0.00 88 1024.8
20260830225455 82 121 1.0 1.0 0.00 0.00 0.00 88 1024.7
20260830224954 81 107 0.0 0.0 0.00 0.00 0.00 90 1024.8
20260830224453 80 107 0.0 1.0 0.00 0.00 0.00 90 1024.9
20260830223950 80 117 1.0 1.0 0.00 0.00 0.00 90 1024.9
20260830223446 80 133 2.0 3.0 0.00 0.00 0.00 90 1024.9
20260830222944 80 126 2.0 3.0 0.00 0.00 0.00 90 1025.0
20260830222440 80 108 0.0 2.0 0.00 0.00 0.00 91 1024.9
20260830221936 80 89 1.0 3.0 0.00 0.00 0.00 91 1024.7
20260830221432 80 119 3.0 3.0 0.00 0.00 0.00 90 1024.7
20260830220927 81 120 1.0 1.0 0.00 0.00 0.00 90 1025.1
20260830220422 81 72 1.0 5.0 0.00 0.00 0.00 89 1025.1
20260830215919 82 348 2.0 6.0 0.00 0.00 0.00 87 1025.2
20260830215414 82 83 1.0 5.0 0.00 0.00 0.00 87 1025.1
20260830214909 82 123 1.0 3.0 0.00 0.00 0.00 87 1025.2
20260830214404 83 108 5.0 6.0 0.00 0.00 0.00 85 1025.3
20260830213858 83 108 3.0 5.0 0.00 0.00 0.00 84 1025.1
20260830213354 84 77 3.0 5.0 0.00 0.00 0.00 83 1025.2
20260830212849 84 96 3.0 6.0 0.00 0.00 0.00 82 1025.2
20260830212345 83 90 4.0 5.0 0.00 0.00 0.00 81 1025.1
20260830211844 83 124 0.0 6.0 0.00 0.00 0.00 82 1025.2
20260830211338 82 143 3.0 5.0 0.00 0.00 0.00 83 1025.2
20260830210834 82 187 3.0 3.0 0.00 0.00 0.00 84 1025.0
20260830210333 82 176 3.0 5.0 0.00 0.00 0.00 84 1025.1
20260830205832 82 178 5.0 7.0 0.00 0.00 0.00 84 1025.2
20260830205331 82 166 3.0 6.0 0.00 0.00 0.00 86 1025.4
20260830204826 82 155 5.0 9.0 0.00 0.00 0.00 85 1025.2
20260830204325 82 183 7.0 9.0 0.00 0.00 0.00 85 1025.1
20260830203821 83 169 6.0 8.0 0.00 0.00 0.00 84 1025.2
20260830203317 84 179 6.0 9.0 0.00 0.00 0.00 84 1025.2
20260830202816 85 100 0.0 0.0 0.00 0.00 0.00 82 1025.0
20260830202312 84 100 0.0 1.0 0.00 0.00 0.00 82 1025.0
20260830201807 84 100 0.0 1.0 0.00 0.00 0.00 83 1025.1
20260830201301 84 100 0.0 0.0 0.00 0.00 0.00 85 1025.2
20260830200757 84 101 1.0 2.0 0.00 0.00 0.00 84 1025.2
20260830200256 84 85 1.0 2.0 0.00 0.00 0.00 82 1025.1
20260830195752 84 116 0.0 2.0 0.00 0.00 0.00 83 1025.2
20260830195251 84 93 0.0 1.0 0.00 0.00 0.00 84 1025.4
20260830194748 84 86 2.0 2.0 0.00 0.00 0.00 83 1025.6
20260830194243 84 101 1.0 2.0 0.00 0.00 0.00 82 1025.5
20260830193737 84 106 2.0 2.0 0.00 0.00 0.00 81 1025.6
20260830193232 85 111 0.0 2.0 0.00 0.00 0.00 82 1025.5
20260830192727 85 116 2.0 3.0 0.00 0.00 0.00 79 1025.7
20260830192222 84 131 0.0 5.0 0.00 0.00 0.00 79 1025.7
20260830191719 85 131 1.0 2.0 0.00 0.00 0.00 80 1025.4
20260830191218 85 116 1.0 2.0 0.00 0.00 0.00 80 1025.6
20260830190714 85 101 2.0 3.0 0.00 0.00 0.00 80 1025.6
20260830190208 85 116 1.0 2.0 0.00 0.00 0.00 79 1025.6
20260830185707 86 75 2.0 2.0 0.00 0.00 0.00 78 1025.6
20260830185203 87 92 2.0 2.0 0.00 0.00 0.00 76 1025.9
20260830184702 87 59 3.0 5.0 0.00 0.00 0.00 74 1025.8
20260830184201 87 180 1.0 3.0 0.00 0.00 0.00 76 1025.9
20260830183701 87 338 4.0 5.0 0.00 0.00 0.00 78 1025.9
20260830183157 86 63 1.0 5.0 0.00 0.00 0.00 80 1026.1
20260830182652 86 159 1.0 5.0 0.00 0.00 0.00 80 1026.0
20260830182149 86 104 2.0 5.0 0.00 0.00 0.00 81 1026.1
20260830181645 86 74 2.0 3.0 0.00 0.00 0.00 79 1026.1
20260830181144 86 81 2.0 6.0 0.00 0.00 0.00 83 1026.0
20260830180643 86 87 3.0 6.0 0.00 0.00 0.00 80 1026.1
20260830180138 86 70 2.0 5.0 0.00 0.00 0.00 79 1026.5
20260830175637 85 157 1.0 3.0 0.00 0.00 0.00 79 1026.4
20260830175133 84 149 4.0 6.0 0.00 0.00 0.00 81 1026.5
20260830174628 83 142 1.0 3.0 0.00 0.00 0.00 82 1026.6
20260830174124 84 86 1.0 3.0 0.00 0.00 0.00 84 1026.6
20260830173618 84 88 1.0 5.0 0.00 0.00 0.00 85 1026.6
20260830173113 84 352 5.0 7.0 0.00 0.00 0.00 83 1026.7
20260830172611 83 69 1.0 5.0 0.00 0.00 0.00 87 1026.6
20260830172107 83 100 1.0 1.0 0.00 0.00 0.00 87 1026.7
20260830171602 82 107 0.0 1.0 0.00 0.00 0.00 88 1027.0
20260830171057 82 85 1.0 2.0 0.00 0.00 0.00 89 1027.0
20260830170556 82 101 1.0 2.0 0.00 0.00 0.00 88 1027.2
20260830170055 82 102 2.0 2.0 0.00 0.00 0.00 87 1027.3
20260830165551 82 91 0.0 2.0 0.00 0.00 0.00 88 1027.4
20260830165046 82 57 2.0 5.0 0.00 0.00 0.00 87 1027.5
20260830164542 82 88 1.0 2.0 0.00 0.00 0.00 88 1027.6
20260830164038 81 97 1.0 5.0 0.00 0.00 0.00 88 1027.6
20260830163535 81 95 1.0 3.0 0.00 0.00 0.00 89 1027.7
20260830163034 81 79 2.0 3.0 0.00 0.00 0.00 89 1027.9
20260830162530 80 107 1.0 3.0 0.00 0.00 0.00 89 1028.0
20260830162031 80 115 3.0 6.0 0.00 0.00 0.00 90 1028.2
20260830161525 80 94 5.0 7.0 0.00 0.00 0.00 90 1028.1
20260830161020 80 91 3.0 6.0 0.00 0.00 0.00 90 1028.2
20260830160516 80 88 2.0 2.0 0.00 0.00 0.00 91 1028.3
20260830160011 80 62 3.0 3.0 0.00 0.00 0.00 91 1028.3
20260830155507 80 82 2.0 6.0 0.00 0.00 0.00 92 1028.2
20260830155003 79 111 3.0 6.0 0.00 0.00 0.00 92 1028.2
20260830154457 79 104 3.0 5.0 0.00 0.00 0.00 92 1028.2
20260830153954 80 114 1.0 3.0 0.00 0.00 0.00 92 1028.3
20260830153450 80 72 2.0 2.0 0.00 0.00 0.00 91 1028.4
20260830152949 80 103 3.0 3.0 0.00 0.00 0.00 90 1028.3
20260830152444 80 65 4.0 5.0 0.00 0.00 0.00 91 1028.3
20260830151943 80 35 3.0 5.0 0.00 0.00 0.00 91 1028.3
20260830151437 80 158 4.0 7.0 0.00 0.00 0.00 90 1028.2
20260830150938 79 81 0.0 3.0 0.00 0.00 0.00 92 1028.3